Regional Weather Roundup
Issued by NWS

Home | Current Version | Previous Version | Graphics & Text | Print | Product List | Glossary On
Versions: 1 2 3 4 5 6 7 8 9 10 11 12 13 14 15 16 17 18 19 20 21 22 23 24 25 26 27 28 29 30 31 32 33 34 35 36 37 38 39 40 41 42 43 44 45 46 47 48 49 50
000
ASUS43 KLSX 230007
RWRMO

WEATHER SUMMARY FOR MISSOURI
NATIONAL WEATHER SERVICE SPRINGFIELD MO
700 PM CDT FRI MAY 22 2015

NOTE: "FAIR" INDICATES FEW OR NO CLOUDS BELOW 12,000 FEET WITH NO
       SIGNIFICANT WEATHER AND/OR OBSTRUCTIONS TO VISIBILITY.
       CURRENT SKY AND/OR WEATHER CONDITIONS ARE NOT AVAILABLE FOR
       CHILLICOTHE AND FARMINGTON.

MOZ001>031-035>038-043-044-053-054-230100-
...NORTHERN AND WESTERN MISSOURI...

CITY           SKY/WX    TMP DP  RH WIND       PRES   REMARKS
KANSAS CTY INT CLOUDY    63  50  62 SE8       30.21F
6HR MIN TEMP:  61; 6HR MAX TEMP:  66; 6HR PCP: TRACE;

KANSAS C DTWN  CLOUDY    65  48  54 SE7       30.20F
6HR MIN TEMP:  64; 6HR MAX TEMP:  68;

LEE`S SUMMIT   CLOUDY    62  51  67 SE6       30.22F
6HR MIN TEMP:  62; 6HR MAX TEMP:  66; 6HR PCP:  0.01;

ST JOSEPH      CLOUDY    65  51  60 E6        30.20F
6HR MIN TEMP:  62; 6HR MAX TEMP:  66;

CHILLICOTHE      N/A     69  54  58 CALM      30.23F
6HR MIN TEMP:  66; 6HR MAX TEMP:  71;

KIRKSVILLE     CLOUDY    66  53  63 W5        30.24S
6HR MIN TEMP:  66; 6HR MAX TEMP:  71;


$$
MOZ066>068-077>081-088>096-101>105-230100-
...SOUTHWEST MISSOURI...

CITY           SKY/WX    TMP DP  RH WIND       PRES   REMARKS
SPRINGFIELD    CLOUDY    63  47  55 SE13      30.19F
6HR MIN TEMP:  63; 6HR MAX TEMP:  68;

JOPLIN         CLOUDY    64  50  60 SE9       30.18F
6HR MIN TEMP:  62; 6HR MAX TEMP:  66; 6HR PCP: TRACE;


$$
MOZ032>034-039>042-045>050-055>058-069>072-230100-
...CENTRAL MISSOURI...

CITY           SKY/WX    TMP DP  RH WIND       PRES   REMARKS
COLUMBIA       CLOUDY    67  51  56 SE3       30.22F
6HR MIN TEMP:  66; 6HR MAX TEMP:  70;

JEFFERSON CITY CLOUDY    69  51  52 E3        30.22F
6HR MIN TEMP:  67; 6HR MAX TEMP:  71;

ROLLA          PTSUNNY   66  53  63 SE5       30.22F
6HR MIN TEMP:  64; 6HR MAX TEMP:  69; 6HR PCP: TRACE;

SEDALIA        CLOUDY    66  51  58 SE5       30.23S
6HR MIN TEMP:  63; 6HR MAX TEMP:  70;

WHITEMAN AFB   CLOUDY    65  52  63 E2        30.21F
WARRENSBURG    LGT RAIN  63  54  72 CALM      30.22F
OSAGE BEACH    CLOUDY    66  52  59 CALM      30.22S

$$
MOZ051-052-059>065-230100-
...EAST CENTRAL MISSOURI...

CITY           SKY/WX    TMP DP  RH WIND       PRES   REMARKS
ST LOUIS INTL  CLOUDY    73  48  41 W5        30.23S
6HR MIN TEMP:  73; 6HR MAX TEMP:  76;

SPIRIT OF STL  PTSUNNY   71  54  54 W5        30.22S
6HR MIN TEMP:  71; 6HR MAX TEMP:  74;

ST CHARLES     CLOUDY    73  47  39 W8        30.22S
6HR MIN TEMP:  72; 6HR MAX TEMP:  75;


$$
MOZ072>076-082>087-097>100-106>115-230100-
...SOUTH CENTRAL AND SOUTHEAST MISSOURI...

CITY           SKY/WX    TMP DP  RH WIND       PRES   REMARKS
CAPE GIRARDEAU CLOUDY    68  55  63 SW5       30.24F
6HR MIN TEMP:  67; 6HR MAX TEMP:  72;

FARMINGTON     CLOUDY    68  52  56 S7        30.28S
6HR MIN TEMP:  68; 6HR MAX TEMP:  72;

POPLAR BLUFF   CLOUDY    68  51  54 CALM      30.23F
6HR MIN TEMP:  67; 6HR MAX TEMP:  71;

WEST PLAINS    CLOUDY    63  48  58 E3        30.26S
6HR MIN TEMP:  63; 6HR MAX TEMP:  66;


$$


USA.gov is the U.S. government's official web portal to all federal, state and local government web resources and services.